{"data":{"norad_id":35682,"epoch":"2026-09-20T04:26:22.494048Z","epoch_age_seconds":41439,"freshness":"FRESH","line1":"1 35682U 09041B   26263.18498257  .00000556  00000+0  89586-4 0  9996","line2":"2 35682  98.0184  35.4809 0011498 122.3912 237.8412 14.75257123919102","mean_motion":14.75257123,"eccentricity":0.0011498,"inclination_deg":98.0184,"raan_deg":35.4809,"arg_perigee_deg":122.3912,"mean_anomaly_deg":237.8412,"bstar":8.9586e-5,"rev_number":91910,"period_min":97.610103184704,"perigee_km":636.26074875092,"apogee_km":652.40962579277,"semimajor_km":7022.4721872718,"source":"CELESTRAK","updated_at":"2026-09-20T09:00:33.889699Z"}}